TimeAKDT,TemperatureF,Dew PointF,Humidity,Sea Level PressureIn,VisibilityMPH,Wind Direction,Wind SpeedMPH,Gust SpeedMPH,PrecipitationIn,Events,Conditions,WindDirDegrees,DateUTC
12:53 AM,46.0,43.0,89,29.58,10.0,North,4.6,-,0.02,Rain,Light Rain,350,2013-09-26 08:53:00
1:53 AM,45.0,42.1,90,29.58,10.0,NNW,3.5,-,0.00,Rain,Light Rain,330,2013-09-26 09:53:00
2:53 AM,45.0,41.0,86,29.59,10.0,NNW,4.6,-,0.01,Rain,Light Rain,330,2013-09-26 10:53:00
3:53 AM,44.1,39.9,85,29.59,9.0,NNW,4.6,-,0.01,Rain,Light Rain,340,2013-09-26 11:53:00
4:53 AM,44.1,39.9,85,29.60,10.0,North,3.5,-,0.03,Rain,Light Rain,350,2013-09-26 12:53:00
5:53 AM,43.0,39.9,89,29.60,8.0,North,3.5,-,0.04,Rain,Light Rain,350,2013-09-26 13:53:00
6:53 AM,43.0,39.9,89,29.60,5.0,NNW,3.5,-,0.05,Rain,Light Rain,330,2013-09-26 14:53:00
7:53 AM,43.0,39.9,89,29.61,10.0,NNE,3.5,-,0.04,Rain,Light Rain,20,2013-09-26 15:53:00
8:53 AM,43.0,39.0,86,29.61,10.0,NNE,4.6,-,0.01,Rain,Light Rain,30,2013-09-26 16:53:00
9:53 AM,43.0,39.9,89,29.62,4.0,North,3.5,-,0.02,Rain,Light Rain,360,2013-09-26 17:53:00
10:53 AM,44.1,39.9,85,29.62,10.0,Calm,Calm,-,0.01,Rain,Light Rain,0,2013-09-26 18:53:00
11:53 AM,46.0,41.0,83,29.62,10.0,Calm,Calm,-,0.01,,Overcast,0,2013-09-26 19:53:00
12:53 PM,48.0,43.0,83,29.61,10.0,Calm,Calm,-,N/A,,Overcast,0,2013-09-26 20:53:00
1:53 PM,48.0,43.0,83,29.60,10.0,WNW,3.5,-,N/A,,Overcast,290,2013-09-26 21:53:00
2:09 PM,48.2,42.8,82,29.58,10.0,Calm,Calm,-,N/A,,Overcast,0,2013-09-26 22:09:00
2:23 PM,48.2,42.8,82,29.58,10.0,Calm,Calm,-,N/A,,Overcast,0,2013-09-26 22:23:00
2:53 PM,48.9,44.1,83,29.57,10.0,North,3.5,-,N/A,,Overcast,10,2013-09-26 22:53:00
3:53 PM,50.0,42.1,74,29.55,10.0,NNW,3.5,-,N/A,,Overcast,340,2013-09-26 23:53:00
4:53 PM,50.0,42.1,74,29.51,10.0,NE,5.8,-,N/A,,Mostly Cloudy,40,2013-09-27 00:53:00
5:53 PM,50.0,43.0,77,29.49,10.0,Calm,Calm,-,N/A,,Overcast,0,2013-09-27 01:53:00
6:53 PM,48.0,43.0,83,29.47,10.0,Calm,Calm,-,N/A,,Overcast,0,2013-09-27 02:53:00
7:53 PM,48.0,42.1,80,29.42,10.0,NNE,5.8,-,0.00,,Overcast,20,2013-09-27 03:53:00
8:53 PM,46.9,41.0,80,29.38,10.0,Calm,Calm,-,N/A,,Overcast,0,2013-09-27 04:53:00
9:53 PM,46.9,43.0,86,29.33,10.0,North,5.8,-,N/A,,Overcast,350,2013-09-27 05:53:00
10:13 PM,46.4,42.8,87,29.31,10.0,Calm,Calm,-,N/A,,Overcast,0,2013-09-27 06:13:00
10:53 PM,46.0,42.1,86,29.29,10.0,NE,3.5,-,0.00,,Overcast,50,2013-09-27 06:53:00
11:53 PM,45.0,42.1,90,29.24,10.0,Calm,Calm,-,N/A,,Overcast,0,2013-09-27 07:53:00